Centralia, IL

5:35 AM CST on February 08, 2016 (GMT -0600)
Centralia Municipal

Weather History for KENL - July, 2014

Change the Weather History Date:

Monday, July 21, 2014

  Actual Average (KSLO) Record (KSLO)
Temperature  
Mean Temperature 77 °F -  
Max Temperature 96 °F 89 °F 102 °F (1983)
Min Temperature 58 °F 67 °F 54 °F (1970)
Cooling Degree Days 12    
Growing Degree Days 27 (Base 50)    
Moisture  
Dew Point 61 °F    
Average Humidity 64    
Maximum Humidity 94    
Minimum Humidity 31    
Precipitation  
Precipitation 0.00 in - - ()
Sea Level Pressure  
Sea Level Pressure 30.08 in    
Wind  
Wind Speed 0 mph (SE)    
Max Wind Speed 5 mph    
Max Gust Speed -    
Visibility 8 miles    
Events      
Averages and records for this station are not official NWS values.
T = Trace of Precipitation, MM = Missing Value Source: NWS Daily Summary

Daily Weather History Graph

Daily Weather History Graph

Search for Another Location

Airport or City:

Trip Planner

Search our weather history database for the weather conditions in past years. The results will help you decide how hot, cold, wet, or windy it might be!

Date:

Astronomy

Jul. 21, 2014 Rise Set
Actual Time 5:49 AM CDT 8:16 PM CDT
Civil Twilight 5:18 AM CDT 8:46 PM CDT
Nautical Twilight 4:40 AM CDT 9:23 PM CDT
Astronomical Twilight 3:59 AM CDT 10:05 PM CDT
Moon 1:38 AM CDT (7/21) 3:59 PM CDT (7/21)
Length of Visible Light 15h 27m
Length of Day
14h 27m
Waning Crescent, 24% of the Moon is Illuminated
Jul 21
Waning Crescent
Jul 26
New
Aug 3
First Quarter
Aug 10
Full
Aug 17
Last Quarter

Hourly Weather History & Observations

Time (CDT) Temp. Heat Index Dew Point Humidity Pressure Visibility Wind Dir Wind Speed Gust Speed Precip Events Conditions
12:15 AM 61.7 °F - 59.5 °F 93% 30.05 in 7.0 mi Calm Calm - N/A   Clear
12:35 AM 60.8 °F - 59.0 °F 94% 30.05 in 7.0 mi Calm Calm - N/A   Clear
12:55 AM 61.0 °F - 59.2 °F 94% 30.04 in 5.0 mi Calm Calm - N/A   Clear
1:15 AM 60.6 °F - 58.8 °F 94% 30.04 in 4.0 mi Calm Calm - N/A   Clear
1:35 AM 60.3 °F - 58.5 °F 94% 30.04 in 3.0 mi Calm Calm - N/A   Clear
1:55 AM 59.5 °F - 57.7 °F 94% 30.04 in 5.0 mi Calm Calm - N/A   Clear
2:15 AM 59.2 °F - 57.4 °F 94% 30.05 in 5.0 mi Calm Calm - N/A   Clear
2:35 AM 59.9 °F - 58.1 °F 94% 30.05 in 4.0 mi Calm Calm - N/A   Clear
2:55 AM 59.4 °F - 57.6 °F 94% 30.05 in 5.0 mi Calm Calm - N/A   Clear
3:15 AM 59.9 °F - 58.1 °F 94% 30.05 in 5.0 mi Calm Calm - N/A   Clear
3:35 AM 58.6 °F - 56.8 °F 94% 30.06 in 5.0 mi Calm Calm - N/A   Clear
3:55 AM 59.4 °F - 57.6 °F 94% 30.06 in 3.0 mi Calm Calm - N/A   Clear
4:15 AM 59.2 °F - 57.4 °F 94% 30.06 in 4.0 mi Calm Calm - N/A   Clear
4:35 AM 58.3 °F - 56.5 °F 94% 30.07 in 5.0 mi Calm Calm - N/A   Clear
4:55 AM 58.5 °F - 56.7 °F 94% 30.08 in 7.0 mi Calm Calm - N/A   Clear
5:15 AM 58.5 °F - 56.8 °F 94% 30.08 in 3.0 mi Calm Calm - N/A   Clear
5:35 AM 58.8 °F - 57.2 °F 94% 30.09 in 4.0 mi Calm Calm - N/A   Clear
5:55 AM 59.0 °F - 57.4 °F 94% 30.09 in 3.0 mi Calm Calm - N/A   Clear
6:15 AM 60.1 °F - 58.3 °F 94% 30.10 in 3.0 mi Calm Calm - N/A   Clear
6:35 AM 63.7 °F - 59.7 °F 87% 30.10 in 4.0 mi Calm Calm - N/A   Clear
6:55 AM 69.6 °F - 60.8 °F 73% 30.10 in 4.0 mi Calm Calm - N/A   Haze
7:15 AM 73.2 °F - 62.1 °F 68% 30.11 in 5.0 mi Calm Calm - N/A   Haze
7:35 AM 78.8 °F - 64.2 °F 61% 30.12 in 7.0 mi Calm Calm - N/A   Clear
7:55 AM 84.9 °F 86.3 °F 64.6 °F 50% 30.12 in 10.0 mi Calm Calm - N/A   Clear
8:35 AM 82.6 °F 83.8 °F 63.3 °F 52% 30.13 in 10.0 mi Calm Calm - N/A   Clear
8:55 AM 81.1 °F 82.4 °F 63.0 °F 54% 30.13 in 10.0 mi Calm Calm - N/A   Clear
9:15 AM 81.3 °F 82.5 °F 62.8 °F 53% 30.13 in 10.0 mi Calm Calm - N/A   Clear
9:35 AM 85.5 °F 85.9 °F 61.7 °F 45% 30.12 in 10.0 mi Calm Calm - N/A   Clear
9:55 AM 84.4 °F 84.8 °F 61.3 °F 46% 30.13 in 10.0 mi Calm Calm - N/A   Clear
10:15 AM 92.5 °F 92.2 °F 60.4 °F 34% 30.13 in 10.0 mi Calm Calm - N/A   Clear
10:35 AM 94.1 °F 94.6 °F 61.7 °F 34% 30.13 in 10.0 mi South 3.5 mph - N/A   Clear
10:55 AM 95.0 °F 94.8 °F 60.3 °F 31% 30.13 in 10.0 mi Calm Calm - N/A   Clear
11:15 AM 89.2 °F 88.7 °F 59.7 °F 37% 30.13 in 10.0 mi Calm Calm - N/A   Clear
11:35 AM 90.1 °F 89.3 °F 59.4 °F 35% 30.13 in 10.0 mi Calm Calm - N/A   Clear
11:55 AM 93.4 °F 93.2 °F 59.9 °F 33% 30.12 in 10.0 mi Calm Calm - N/A   Clear
12:15 PM 86.9 °F 86.3 °F 59.0 °F 39% 30.12 in 10.0 mi SE 3.5 mph - N/A   Scattered Clouds
12:35 PM 96.3 °F 97.2 °F 61.7 °F 32% 30.11 in 10.0 mi South 3.5 mph - N/A   Clear
12:55 PM 87.4 °F 87.7 °F 62.1 °F 42% 30.11 in 10.0 mi Calm Calm - N/A   Scattered Clouds
1:15 PM 91.8 °F 91.5 °F 60.4 °F 35% 30.11 in 10.0 mi ESE 3.5 mph - N/A   Scattered Clouds
1:35 PM 90.9 °F 90.6 °F 60.8 °F 36% 30.10 in 10.0 mi Calm Calm - N/A   Scattered Clouds
1:55 PM 90.0 °F 89.4 °F 59.9 °F 36% 30.10 in 10.0 mi ENE 4.6 mph - N/A   Scattered Clouds
2:15 PM 90.7 °F 89.8 °F 58.6 °F 34% 30.09 in 10.0 mi Calm Calm - N/A   Clear
2:35 PM 88.5 °F 87.8 °F 59.0 °F 37% 30.08 in 10.0 mi Calm Calm - N/A   Clear
2:55 PM 90.3 °F 89.3 °F 58.6 °F 34% 30.08 in 10.0 mi Calm Calm - N/A   Scattered Clouds
3:15 PM 93.9 °F 93.6 °F 59.9 °F 32% 30.08 in 10.0 mi South 3.5 mph - N/A   Clear
3:35 PM 91.6 °F 90.4 °F 58.1 °F 32% 30.07 in 10.0 mi Calm Calm - N/A   Clear
3:55 PM 93.4 °F 92.5 °F 58.3 °F 31% 30.07 in 10.0 mi South 3.5 mph - N/A   Clear
4:15 PM 90.3 °F 89.6 °F 59.0 °F 35% 30.07 in 10.0 mi Calm Calm - N/A   Clear
4:35 PM 92.7 °F 92.1 °F 59.4 °F 33% 30.07 in 10.0 mi ESE 3.5 mph - N/A   Clear
4:55 PM 93.2 °F 92.9 °F 59.7 °F 33% 30.07 in 10.0 mi ESE 3.5 mph - N/A   Clear
5:15 PM 93.2 °F 92.6 °F 59.2 °F 32% 30.07 in 10.0 mi East 4.6 mph - N/A   Clear
5:35 PM 90.7 °F 89.8 °F 58.6 °F 34% 30.06 in 10.0 mi Calm Calm - N/A   Clear
5:55 PM 91.6 °F 91.0 °F 59.5 °F 34% 30.07 in 10.0 mi Calm Calm - N/A   Clear
6:15 PM 89.2 °F 88.4 °F 59.4 °F 36% 30.06 in 10.0 mi East 3.5 mph - N/A   Clear
6:35 PM 88.3 °F 87.6 °F 58.6 °F 37% 30.07 in 10.0 mi Calm Calm - N/A   Clear
6:55 PM 87.6 °F 87.7 °F 61.2 °F 41% 30.07 in 10.0 mi Calm Calm - N/A   Clear
7:15 PM 84.9 °F 85.9 °F 63.3 °F 48% 30.06 in 10.0 mi Calm Calm - N/A   Clear
7:35 PM 82.9 °F 84.2 °F 63.7 °F 52% 30.07 in 10.0 mi Calm Calm - N/A   Clear
7:55 PM 78.4 °F - 64.9 °F 63% 30.07 in 10.0 mi Calm Calm - N/A   Clear
8:15 PM 74.3 °F - 66.2 °F 76% 30.07 in 10.0 mi Calm Calm - N/A   Clear
8:35 PM 71.6 °F - 66.2 °F 83% 30.08 in 10.0 mi Calm Calm - N/A   Clear
8:55 PM 71.2 °F - 65.8 °F 83% 30.07 in 10.0 mi Calm Calm - N/A   Clear
9:15 PM 69.3 °F - 65.3 °F 87% 30.08 in 10.0 mi Calm Calm - N/A   Clear
9:35 PM 69.8 °F - 65.3 °F 86% 30.08 in 10.0 mi Calm Calm - N/A   Clear
9:55 PM 67.5 °F - 64.4 °F 90% 30.08 in 10.0 mi Calm Calm - N/A   Clear
10:15 PM 67.6 °F - 64.8 °F 90% 30.08 in 10.0 mi Calm Calm - N/A   Clear
10:35 PM 66.2 °F - 63.1 °F 90% 30.08 in 10.0 mi Calm Calm - N/A   Clear
10:55 PM 66.2 °F - 63.7 °F 92% 30.07 in 7.0 mi Calm Calm - N/A   Clear
11:15 PM 66.2 °F - 63.7 °F 92% 30.08 in 7.0 mi Calm Calm - N/A   Clear
11:35 PM 64.4 °F - 62.6 °F 94% 30.08 in 7.0 mi Calm Calm - N/A   Clear
11:55 PM 64.2 °F - 62.1 °F 93% 30.08 in 5.0 mi Calm Calm - N/A   Clear